Data supplied by UK-AIR on 15/3/2018
All Data GMT hour ending 
Status: R =Ratified P=Provisional,P*=As supplied
,,Cambridge Roadside,,,,,,,,,,,,,,,,,,,,,,,
Date,time,"Nitric oxide",status,unit,"Nitrogen dioxide",status,unit,"Nitrogen oxides as nitrogen dioxide",status,unit
 
01-01-2017,01:00,13.36690,R,ugm-3,21.72600,R,ugm-3,42.22163,R,ugm-3
01-01-2017,02:00,10.66442,R,ugm-3,21.53921,R,ugm-3,37.89109,R,ugm-3
01-01-2017,03:00,11.05732,R,ugm-3,18.48144,R,ugm-3,35.43576,R,ugm-3
01-01-2017,04:00,9.54621,R,ugm-3,15.98468,R,ugm-3,30.62199,R,ugm-3
01-01-2017,05:00,7.29795,R,ugm-3,13.57445,R,ugm-3,24.76448,R,ugm-3
01-01-2017,06:00,3.42789,R,ugm-3,12.60672,R,ugm-3,17.86275,R,ugm-3
01-01-2017,07:00,7.96120,R,ugm-3,13.94930,R,ugm-3,26.15631,R,ugm-3
01-01-2017,08:00,4.57011,R,ugm-3,12.65358,R,ugm-3,19.66098,R,ugm-3
01-01-2017,09:00,3.13322,R,ugm-3,12.30503,R,ugm-3,17.10923,R,ugm-3
01-01-2017,10:00,2.43286,R,ugm-3,11.92874,R,ugm-3,15.65907,R,ugm-3
01-01-2017,11:00,5.86013,R,ugm-3,17.22876,R,ugm-3,26.21416,R,ugm-3
01-01-2017,12:00,19.01821,R,ugm-3,27.61793,R,ugm-3,56.77878,R,ugm-3
01-01-2017,13:00,4.93900,R,ugm-3,12.84148,R,ugm-3,20.41450,R,ugm-3
01-01-2017,14:00,2.43255,R,ugm-3,10.71143,R,ugm-3,14.44129,R,ugm-3
01-01-2017,15:00,2.43255,R,ugm-3,12.04493,R,ugm-3,15.77478,R,ugm-3
01-01-2017,16:00,2.13756,R,ugm-3,11.74371,R,ugm-3,15.02125,R,ugm-3
01-01-2017,17:00,1.80578,R,ugm-3,9.29427,R,ugm-3,12.06309,R,ugm-3
01-01-2017,18:00,2.06366,R,ugm-3,10.00094,R,ugm-3,13.16517,R,ugm-3
01-01-2017,19:00,2.58004,R,ugm-3,11.00739,R,ugm-3,14.96340,R,ugm-3
01-01-2017,20:00,2.98572,R,ugm-3,9.63087,R,ugm-3,14.20892,R,ugm-3
01-01-2017,21:00,2.50614,R,ugm-3,9.43819,R,ugm-3,13.28088,R,ugm-3
01-01-2017,22:00,2.13787,R,ugm-3,7.85751,R,ugm-3,11.13553,R,ugm-3
01-01-2017,23:00,5.52866,R,ugm-3,11.12549,R,ugm-3,19.60265,R,ugm-3
01-01-2017,24:00,3.53828,R,ugm-3,9.65334,R,ugm-3,15.07863,R,ugm-3
02-01-2017,01:00,4.61917,R,ugm-3,9.02764,R,ugm-3,16.11026,R,ugm-3
02-01-2017,02:00,1.67097,R,ugm-3,7.97258,R,ugm-3,10.53469,R,ugm-3
02-01-2017,03:00,2.83823,R,ugm-3,6.68562,R,ugm-3,11.03752,R,ugm-3
02-01-2017,04:00,2.43255,R,ugm-3,6.90078,R,ugm-3,10.63063,R,ugm-3
02-01-2017,05:00,2.13756,R,ugm-3,7.23690,R,ugm-3,10.51445,R,ugm-3
02-01-2017,06:00,3.35430,R,ugm-3,7.69494,R,ugm-3,12.83813,R,ugm-3
02-01-2017,07:00,6.67118,R,ugm-3,12.71717,R,ugm-3,22.94618,R,ugm-3
02-01-2017,08:00,9.50942,R,ugm-3,19.80968,R,ugm-3,34.39058,R,ugm-3
02-01-2017,09:00,4.64432,R,ugm-3,13.67533,R,ugm-3,20.79653,R,ugm-3
02-01-2017,10:00,34.60915,R,ugm-3,27.44868,R,ugm-3,80.51529,R,ugm-3
02-01-2017,11:00,40.17460,R,ugm-3,29.77906,R,ugm-3,91.37925,R,ugm-3
02-01-2017,12:00,26.64825,R,ugm-3,22.05352,R,ugm-3,62.91360,R,ugm-3
02-01-2017,13:00,31.21836,R,ugm-3,24.68942,R,ugm-3,72.55690,R,ugm-3
02-01-2017,14:00,51.01114,R,ugm-3,35.64518,R,ugm-3,113.86117,R,ugm-3
02-01-2017,15:00,62.40024,R,ugm-3,35.49313,R,ugm-3,131.17216,R,ugm-3
02-01-2017,16:00,84.80923,R,ugm-3,47.54905,R,ugm-3,177.58806,R,ugm-3
02-01-2017,17:00,93.17643,R,ugm-3,58.65303,R,ugm-3,201.52156,R,ugm-3
02-01-2017,18:00,100.62187,R,ugm-3,56.00900,R,ugm-3,210.29372,R,ugm-3
02-01-2017,19:00,89.30637,R,ugm-3,52.73623,R,ugm-3,189.67075,R,ugm-3
02-01-2017,20:00,35.30950,R,ugm-3,44.55838,R,ugm-3,98.69887,R,ugm-3
02-01-2017,21:00,42.23888,R,ugm-3,41.13692,R,ugm-3,105.90230,R,ugm-3
02-01-2017,22:00,24.76857,R,ugm-3,37.25168,R,ugm-3,75.22962,R,ugm-3
02-01-2017,23:00,21.34068,R,ugm-3,36.29160,R,ugm-3,69.01352,R,ugm-3
02-01-2017,24:00,11.75767,R,ugm-3,36.69514,R,ugm-3,54.72332,R,ugm-3
03-01-2017,01:00,13.72238,R,ugm-3,38.41766,R,ugm-3,59.45835,R,ugm-3
03-01-2017,02:00,6.44314,R,ugm-3,35.39273,R,ugm-3,45.27206,R,ugm-3
03-01-2017,03:00,10.43990,R,ugm-3,33.23686,R,ugm-3,49.24448,R,ugm-3
03-01-2017,04:00,6.49251,R,ugm-3,27.89381,R,ugm-3,37.84885,R,ugm-3
03-01-2017,05:00,10.80848,R,ugm-3,27.26460,R,ugm-3,43.83737,R,ugm-3
03-01-2017,06:00,10.58708,R,ugm-3,28.12714,R,ugm-3,44.36044,R,ugm-3
03-01-2017,07:00,33.01541,R,ugm-3,35.19191,R,ugm-3,85.81483,R,ugm-3
03-01-2017,08:00,78.83154,R,ugm-3,45.87179,R,ugm-3,166.74514,R,ugm-3
03-01-2017,09:00,82.55723,R,ugm-3,51.38027,R,ugm-3,177.96625,R,ugm-3
03-01-2017,10:00,62.26865,R,ugm-3,45.86127,R,ugm-3,141.33853,R,ugm-3
03-01-2017,11:00,50.83278,R,ugm-3,41.24402,R,ugm-3,119.18652,R,ugm-3
03-01-2017,12:00,48.76725,R,ugm-3,41.27223,R,ugm-3,116.04763,R,ugm-3
03-01-2017,13:00,57.17748,R,ugm-3,42.15533,R,ugm-3,129.82624,R,ugm-3
03-01-2017,14:00,68.24446,R,ugm-3,42.04775,R,ugm-3,146.68779,R,ugm-3
03-01-2017,15:00,66.65821,R,ugm-3,45.40944,R,ugm-3,147.61727,R,ugm-3
03-01-2017,16:00,52.27154,R,ugm-3,48.28202,R,ugm-3,128.43059,R,ugm-3
03-01-2017,17:00,72.08084,R,ugm-3,51.45581,R,ugm-3,161.97823,R,ugm-3
03-01-2017,18:00,47.29138,R,ugm-3,41.73266,R,ugm-3,114.24510,R,ugm-3
03-01-2017,19:00,50.86988,R,ugm-3,44.21078,R,ugm-3,122.21018,R,ugm-3
03-01-2017,20:00,26.96569,R,ugm-3,41.38650,R,ugm-3,82.73332,R,ugm-3
03-01-2017,21:00,18.85045,R,ugm-3,40.10847,R,ugm-3,69.01208,R,ugm-3
03-01-2017,22:00,12.17334,R,ugm-3,32.32316,R,ugm-3,50.98868,R,ugm-3
03-01-2017,23:00,14.57096,R,ugm-3,31.32149,R,ugm-3,53.66332,R,ugm-3
03-01-2017,24:00,6.01292,R,ugm-3,21.82736,R,ugm-3,31.04705,R,ugm-3
04-01-2017,01:00,5.90763,R,ugm-3,18.40590,R,ugm-3,27.46414,R,ugm-3
04-01-2017,02:00,2.85507,R,ugm-3,16.10453,R,ugm-3,20.48224,R,ugm-3
04-01-2017,03:00,2.99040,R,ugm-3,14.67509,R,ugm-3,19.26031,R,ugm-3
04-01-2017,04:00,3.10110,R,ugm-3,11.07194,R,ugm-3,15.82689,R,ugm-3
04-01-2017,05:00,3.76591,R,ugm-3,11.15896,R,ugm-3,16.93328,R,ugm-3
04-01-2017,06:00,6.60882,R,ugm-3,19.83310,R,ugm-3,29.96648,R,ugm-3
04-01-2017,07:00,29.20397,R,ugm-3,33.30906,R,ugm-3,78.08785,R,ugm-3
04-01-2017,08:00,68.59713,R,ugm-3,42.67409,R,ugm-3,147.85490,R,ugm-3
04-01-2017,09:00,69.85254,R,ugm-3,44.76493,R,ugm-3,151.87067,R,ugm-3
04-01-2017,10:00,72.76935,R,ugm-3,37.26602,R,ugm-3,148.84414,R,ugm-3
04-01-2017,11:00,85.17469,R,ugm-3,45.65138,R,ugm-3,176.25074,R,ugm-3
04-01-2017,12:00,70.96046,R,ugm-3,39.05086,R,ugm-3,147.85538,R,ugm-3
04-01-2017,13:00,35.22157,R,ugm-3,27.69013,R,ugm-3,81.69578,R,ugm-3
04-01-2017,14:00,58.73972,R,ugm-3,37.36547,R,ugm-3,127.43179,R,ugm-3
04-01-2017,15:00,58.14913,R,ugm-3,37.04847,R,ugm-3,126.20922,R,ugm-3
04-01-2017,16:00,81.77798,R,ugm-3,40.73529,R,ugm-3,166.12644,R,ugm-3
04-01-2017,17:00,67.26845,R,ugm-3,43.19859,R,ugm-3,146.34211,R,ugm-3
04-01-2017,18:00,103.81933,R,ugm-3,54.71089,R,ugm-3,213.89830,R,ugm-3
04-01-2017,19:00,106.77325,R,ugm-3,53.32385,R,ugm-3,217.04054,R,ugm-3
04-01-2017,20:00,72.06806,R,ugm-3,51.84070,R,ugm-3,162.34352,R,ugm-3
04-01-2017,21:00,54.67851,R,ugm-3,48.65400,R,ugm-3,132.49322,R,ugm-3
04-01-2017,22:00,32.89567,R,ugm-3,43.64994,R,ugm-3,94.08926,R,ugm-3
04-01-2017,23:00,38.91389,R,ugm-3,47.04941,R,ugm-3,106.71654,R,ugm-3
04-01-2017,24:00,21.52403,R,ugm-3,40.95380,R,ugm-3,73.95685,R,ugm-3
05-01-2017,01:00,13.40058,R,ugm-3,33.26220,R,ugm-3,53.80946,R,ugm-3
05-01-2017,02:00,8.86789,R,ugm-3,32.44811,R,ugm-3,46.04535,R,ugm-3
05-01-2017,03:00,7.68586,R,ugm-3,25.95215,R,ugm-3,37.73697,R,ugm-3
05-01-2017,04:00,4.69328,R,ugm-3,25.53235,R,ugm-3,32.72861,R,ugm-3
05-01-2017,05:00,7.50095,R,ugm-3,27.16658,R,ugm-3,38.66788,R,ugm-3
05-01-2017,06:00,16.96047,R,ugm-3,36.07358,R,ugm-3,62.07927,R,ugm-3
05-01-2017,07:00,69.28377,R,ugm-3,53.97218,R,ugm-3,160.20582,R,ugm-3
05-01-2017,08:00,173.37532,R,ugm-3,67.61931,R,ugm-3,333.45776,R,ugm-3
05-01-2017,09:00,144.07313,R,ugm-3,72.89016,R,ugm-3,293.79921,R,ugm-3
05-01-2017,10:00,235.30564,R,ugm-3,72.00993,R,ugm-3,432.80688,R,ugm-3
05-01-2017,11:00,123.30652,R,ugm-3,59.77375,R,ugm-3,248.84111,R,ugm-3
05-01-2017,12:00,104.20318,R,ugm-3,54.47278,R,ugm-3,214.24877,R,ugm-3
05-01-2017,13:00,122.45680,R,ugm-3,60.55166,R,ugm-3,248.31613,R,ugm-3
05-01-2017,14:00,75.52807,R,ugm-3,53.77376,R,ugm-3,169.58185,R,ugm-3
05-01-2017,15:00,171.86048,R,ugm-3,66.68027,R,ugm-3,330.19599,R,ugm-3
05-01-2017,16:00,276.65395,R,ugm-3,75.58152,R,ugm-3,499.77833,R,ugm-3
05-01-2017,17:00,278.98203,R,ugm-3,79.98936,R,ugm-3,507.75584,R,ugm-3
05-01-2017,18:00,338.25155,R,ugm-3,89.68430,R,ugm-3,608.32943,R,ugm-3
05-01-2017,19:00,276.54325,R,ugm-3,80.87580,R,ugm-3,504.90287,R,ugm-3
05-01-2017,20:00,263.68390,R,ugm-3,76.13423,R,ugm-3,480.44391,R,ugm-3
05-01-2017,21:00,122.45680,R,ugm-3,65.79335,R,ugm-3,253.55782,R,ugm-3
05-01-2017,22:00,114.99264,R,ugm-3,60.52441,R,ugm-3,236.84400,R,ugm-3
05-01-2017,23:00,127.26015,R,ugm-3,59.18566,R,ugm-3,254.31517,R,ugm-3
05-01-2017,24:00,93.37600,R,ugm-3,52.32218,R,ugm-3,195.49671,R,ugm-3
06-01-2017,01:00,60.94474,R,ugm-3,48.41430,R,ugm-3,141.86160,R,ugm-3
06-01-2017,02:00,38.13329,R,ugm-3,42.40395,R,ugm-3,100.87418,R,ugm-3
06-01-2017,03:00,36.50816,R,ugm-3,43.00973,R,ugm-3,98.98813,R,ugm-3
06-01-2017,04:00,25.08975,R,ugm-3,40.33510,R,ugm-3,78.80552,R,ugm-3
06-01-2017,05:00,39.46395,R,ugm-3,39.99420,R,ugm-3,100.50474,R,ugm-3
06-01-2017,06:00,32.66460,R,ugm-3,43.53663,R,ugm-3,93.62166,R,ugm-3
06-01-2017,07:00,94.00401,R,ugm-3,53.54713,R,ugm-3,197.68461,R,ugm-3
06-01-2017,08:00,122.67788,R,ugm-3,55.07952,R,ugm-3,243.18298,R,ugm-3
06-01-2017,09:00,158.85332,R,ugm-3,62.72570,R,ugm-3,306.29739,R,ugm-3
06-01-2017,10:00,174.63167,R,ugm-3,60.05680,R,ugm-3,327.82163,R,ugm-3
06-01-2017,11:00,163.87901,R,ugm-3,59.91958,R,ugm-3,311.19722,R,ugm-3
06-01-2017,12:00,145.03355,R,ugm-3,63.49978,R,ugm-3,285.88146,R,ugm-3
06-01-2017,13:00,117.43080,R,ugm-3,59.10008,R,ugm-3,239.15813,R,ugm-3
06-01-2017,14:00,130.29015,R,ugm-3,62.13187,R,ugm-3,261.90731,R,ugm-3
06-01-2017,15:00,173.78132,R,ugm-3,66.55213,R,ugm-3,333.01311,R,ugm-3
06-01-2017,16:00,109.33894,R,ugm-3,60.36615,R,ugm-3,228.01686,R,ugm-3
06-01-2017,17:00,103.31604,R,ugm-3,59.10151,R,ugm-3,217.51723,R,ugm-3
06-01-2017,18:00,72.68329,R,ugm-3,52.87298,R,ugm-3,164.31913,R,ugm-3
06-01-2017,19:00,69.69008,R,ugm-3,53.78763,R,ugm-3,160.64426,R,ugm-3
06-01-2017,20:00,57.31156,R,ugm-3,43.66046,R,ugm-3,131.53697,R,ugm-3
06-01-2017,21:00,19.76846,R,ugm-3,33.79483,R,ugm-3,64.10604,R,ugm-3
06-01-2017,22:00,15.00190,R,ugm-3,27.04562,R,ugm-3,50.04821,R,ugm-3
06-01-2017,23:00,14.30030,R,ugm-3,23.57156,R,ugm-3,45.49838,R,ugm-3
06-01-2017,24:00,13.00716,R,ugm-3,20.30453,R,ugm-3,40.24856,R,ugm-3
07-01-2017,01:00,7.49503,R,ugm-3,18.24206,R,ugm-3,29.73427,R,ugm-3
07-01-2017,02:00,9.36889,R,ugm-3,19.33920,R,ugm-3,33.70462,R,ugm-3
07-01-2017,03:00,10.05916,R,ugm-3,17.85223,R,ugm-3,33.27607,R,ugm-3
07-01-2017,04:00,7.87732,R,ugm-3,15.82689,R,ugm-3,27.90529,R,ugm-3
07-01-2017,05:00,13.42469,R,ugm-3,16.31123,R,ugm-3,36.89547,R,ugm-3
07-01-2017,06:00,12.64793,R,ugm-3,18.55316,R,ugm-3,37.94639,R,ugm-3
07-01-2017,07:00,39.09038,R,ugm-3,29.14889,R,ugm-3,89.08664,R,ugm-3
07-01-2017,08:00,75.33318,R,ugm-3,28.27823,R,ugm-3,143.78749,R,ugm-3
07-01-2017,09:00,95.85844,R,ugm-3,30.72479,R,ugm-3,177.70568,R,ugm-3
07-01-2017,10:00,106.73115,R,ugm-3,33.66908,R,ugm-3,197.32123,R,ugm-3
07-01-2017,11:00,105.62168,R,ugm-3,34.43648,R,ugm-3,196.38745,R,ugm-3
07-01-2017,12:00,113.42541,R,ugm-3,37.94113,R,ugm-3,211.85767,R,ugm-3
07-01-2017,13:00,171.52464,R,ugm-3,44.59854,R,ugm-3,307.59933,R,ugm-3
07-01-2017,14:00,157.24898,R,ugm-3,45.17899,R,ugm-3,286.29073,R,ugm-3
07-01-2017,15:00,170.08214,R,ugm-3,50.83855,R,ugm-3,311.62753,R,ugm-3
07-01-2017,16:00,130.03040,R,ugm-3,48.90884,R,ugm-3,248.28601,R,ugm-3
07-01-2017,17:00,,,,,,,,,
07-01-2017,18:00,179.54977,R,ugm-3,52.43453,R,ugm-3,327.74034,R,ugm-3
07-01-2017,19:00,176.77578,R,ugm-3,50.49908,R,ugm-3,321.55149,R,ugm-3
07-01-2017,20:00,122.59681,R,ugm-3,41.27558,R,ugm-3,229.25472,R,ugm-3
07-01-2017,21:00,106.50975,R,ugm-3,35.70207,R,ugm-3,199.01475,R,ugm-3
07-01-2017,22:00,51.88612,R,ugm-3,32.99684,R,ugm-3,112.55445,R,ugm-3
07-01-2017,23:00,112.46374,R,ugm-3,38.59855,R,ugm-3,211.04055,R,ugm-3
07-01-2017,24:00,93.52879,R,ugm-3,37.21582,R,ugm-3,180.62463,R,ugm-3
08-01-2017,01:00,39.43214,R,ugm-3,30.83970,R,ugm-3,91.30147,R,ugm-3
08-01-2017,02:00,19.24709,R,ugm-3,30.47314,R,ugm-3,59.98493,R,ugm-3
08-01-2017,03:00,11.88147,R,ugm-3,29.51657,R,ugm-3,47.73457,R,ugm-3
08-01-2017,04:00,14.73124,R,ugm-3,35.89715,R,ugm-3,58.48473,R,ugm-3
08-01-2017,05:00,11.65914,R,ugm-3,30.79221,R,ugm-3,48.66930,R,ugm-3
08-01-2017,06:00,7.43952,R,ugm-3,28.96577,R,ugm-3,40.37288,R,ugm-3
08-01-2017,07:00,21.69024,R,ugm-3,38.49002,R,ugm-3,71.74792,R,ugm-3
08-01-2017,08:00,20.50561,R,ugm-3,31.25073,R,ugm-3,62.69223,R,ugm-3
08-01-2017,09:00,8.66125,R,ugm-3,26.39154,R,ugm-3,39.67194,R,ugm-3
08-01-2017,10:00,45.34154,R,ugm-3,28.45943,R,ugm-3,97.98216,R,ugm-3
08-01-2017,11:00,74.32318,R,ugm-3,30.58757,R,ugm-3,144.54818,R,ugm-3
08-01-2017,12:00,79.65320,R,ugm-3,36.96337,R,ugm-3,159.09657,R,ugm-3
08-01-2017,13:00,74.36028,R,ugm-3,42.50770,R,ugm-3,156.52522,R,ugm-3
08-01-2017,14:00,64.55183,R,ugm-3,46.79744,R,ugm-3,145.77553,R,ugm-3
08-01-2017,15:00,74.65652,R,ugm-3,46.96144,R,ugm-3,161.43317,R,ugm-3
08-01-2017,16:00,72.80584,R,ugm-3,52.02000,R,ugm-3,163.65406,R,ugm-3
08-01-2017,17:00,85.90872,R,ugm-3,50.68412,R,ugm-3,182.40899,R,ugm-3
08-01-2017,18:00,138.72720,R,ugm-3,62.24470,R,ugm-3,274.95678,R,ugm-3
08-01-2017,19:00,67.73463,R,ugm-3,54.24472,R,ugm-3,158.10303,R,ugm-3
08-01-2017,20:00,34.05254,R,ugm-3,47.87227,R,ugm-3,100.08543,R,ugm-3
08-01-2017,21:00,40.27095,R,ugm-3,44.35470,R,ugm-3,106.10263,R,ugm-3
08-01-2017,22:00,22.06006,R,ugm-3,39.61839,R,ugm-3,73.44335,R,ugm-3
08-01-2017,23:00,24.09565,R,ugm-3,38.77498,R,ugm-3,75.72113,R,ugm-3
08-01-2017,24:00,12.62205,R,ugm-3,41.81968,R,ugm-3,61.17323,R,ugm-3
09-01-2017,01:00,12.53537,R,ugm-3,39.25343,R,ugm-3,58.47405,R,ugm-3
09-01-2017,02:00,7.30377,R,ugm-3,37.68581,R,ugm-3,48.88478,R,ugm-3
09-01-2017,03:00,3.40482,R,ugm-3,23.84170,R,ugm-3,29.06235,R,ugm-3
09-01-2017,04:00,3.70136,R,ugm-3,14.90794,R,ugm-3,20.58328,R,ugm-3
09-01-2017,05:00,2.48026,R,ugm-3,15.08389,R,ugm-3,18.88689,R,ugm-3
09-01-2017,06:00,4.55296,R,ugm-3,16.40877,R,ugm-3,23.38988,R,ugm-3
09-01-2017,07:00,26.64981,R,ugm-3,25.03845,R,ugm-3,65.90093,R,ugm-3
09-01-2017,08:00,45.37896,R,ugm-3,35.03126,R,ugm-3,104.61136,R,ugm-3
09-01-2017,09:00,55.55755,R,ugm-3,38.19454,R,ugm-3,123.38159,R,ugm-3
09-01-2017,10:00,44.78649,R,ugm-3,36.52397,R,ugm-3,105.19563,R,ugm-3
09-01-2017,11:00,39.01243,R,ugm-3,36.78168,R,ugm-3,96.59990,R,ugm-3
09-01-2017,12:00,43.12072,R,ugm-3,37.03174,R,ugm-3,103.14925,R,ugm-3
09-01-2017,13:00,42.63926,R,ugm-3,38.47137,R,ugm-3,103.85066,R,ugm-3
09-01-2017,14:00,46.48905,R,ugm-3,33.56246,R,ugm-3,104.84468,R,ugm-3
09-01-2017,15:00,45.34185,R,ugm-3,38.53879,R,ugm-3,108.06199,R,ugm-3
09-01-2017,16:00,55.40912,R,ugm-3,41.22920,R,ugm-3,126.18866,R,ugm-3
09-01-2017,17:00,48.19162,R,ugm-3,40.71713,R,ugm-3,114.60991,R,ugm-3
09-01-2017,18:00,70.10387,R,ugm-3,50.97530,R,ugm-3,158.46640,R,ugm-3
09-01-2017,19:00,60.96148,R,ugm-3,49.67336,R,ugm-3,143.14632,R,ugm-3
09-01-2017,20:00,29.49989,R,ugm-3,39.73123,R,ugm-3,84.96377,R,ugm-3
09-01-2017,21:00,22.28208,R,ugm-3,40.50627,R,ugm-3,74.67165,R,ugm-3
09-01-2017,22:00,23.28179,R,ugm-3,36.40109,R,ugm-3,72.09934,R,ugm-3
09-01-2017,23:00,13.84347,R,ugm-3,27.54143,R,ugm-3,48.76779,R,ugm-3
09-01-2017,24:00,8.14269,R,ugm-3,22.83334,R,ugm-3,35.31862,R,ugm-3
10-01-2017,01:00,5.03785,R,ugm-3,19.21808,R,ugm-3,26.94266,R,ugm-3
10-01-2017,02:00,2.81516,R,ugm-3,17.23736,R,ugm-3,21.55388,R,ugm-3
10-01-2017,03:00,3.29693,R,ugm-3,15.91296,R,ugm-3,20.96817,R,ugm-3
10-01-2017,04:00,3.81549,R,ugm-3,18.28111,R,ugm-3,24.13145,R,ugm-3
10-01-2017,05:00,3.29693,R,ugm-3,15.61987,R,ugm-3,20.67508,R,ugm-3
10-01-2017,06:00,5.66773,R,ugm-3,20.82904,R,ugm-3,29.51944,R,ugm-3
10-01-2017,07:00,33.22901,R,ugm-3,35.03078,R,ugm-3,85.98122,R,ugm-3
10-01-2017,08:00,58.01192,R,ugm-3,48.63153,R,ugm-3,137.58190,R,ugm-3
10-01-2017,09:00,102.83646,R,ugm-3,61.89950,R,ugm-3,219.57986,R,ugm-3
10-01-2017,10:00,71.97794,R,ugm-3,50.35230,R,ugm-3,160.71694,R,ugm-3
10-01-2017,11:00,61.08683,R,ugm-3,46.20074,R,ugm-3,139.86591,R,ugm-3
10-01-2017,12:00,56.08609,R,ugm-3,43.97029,R,ugm-3,129.96776,R,ugm-3
10-01-2017,13:00,44.67579,R,ugm-3,41.02456,R,ugm-3,109.52648,R,ugm-3
10-01-2017,14:00,46.75036,R,ugm-3,42.70565,R,ugm-3,114.38854,R,ugm-3
10-01-2017,15:00,57.34524,R,ugm-3,45.61313,R,ugm-3,133.54127,R,ugm-3
10-01-2017,16:00,80.53536,R,ugm-3,52.45988,R,ugm-3,175.94570,R,ugm-3
10-01-2017,17:00,143.54864,R,ugm-3,61.79431,R,ugm-3,281.89915,R,ugm-3
10-01-2017,18:00,85.05495,R,ugm-3,56.42401,R,ugm-3,186.83978,R,ugm-3
10-01-2017,19:00,76.97899,R,ugm-3,50.94278,R,ugm-3,168.97559,R,ugm-3
10-01-2017,20:00,34.56268,R,ugm-3,36.67601,R,ugm-3,89.67139,R,ugm-3
10-01-2017,21:00,22.59733,R,ugm-3,31.65331,R,ugm-3,66.30207,R,ugm-3
10-01-2017,22:00,13.70658,R,ugm-3,31.75515,R,ugm-3,52.77161,R,ugm-3
10-01-2017,23:00,12.55813,R,ugm-3,28.53785,R,ugm-3,47.79338,R,ugm-3
10-01-2017,24:00,6.70517,R,ugm-3,21.05376,R,ugm-3,31.33488,R,ugm-3
11-01-2017,01:00,4.64702,R,ugm-3,20.23043,R,ugm-3,27.35576,R,ugm-3
11-01-2017,02:00,3.06503,R,ugm-3,16.48129,R,ugm-3,21.18094,R,ugm-3
11-01-2017,03:00,1.48273,R,ugm-3,11.09154,R,ugm-3,13.36503,R,ugm-3
11-01-2017,04:00,2.18745,R,ugm-3,11.59358,R,ugm-3,14.94762,R,ugm-3
11-01-2017,05:00,2.00223,R,ugm-3,10.06023,R,ugm-3,13.13027,R,ugm-3
11-01-2017,06:00,6.71079,R,ugm-3,17.14365,R,ugm-3,27.43338,R,ugm-3
11-01-2017,07:00,23.91386,R,ugm-3,28.22324,R,ugm-3,64.89065,R,ugm-3
11-01-2017,08:00,35.18509,R,ugm-3,35.61936,R,ugm-3,89.56907,R,ugm-3
11-01-2017,09:00,34.66621,R,ugm-3,39.57967,R,ugm-3,92.73378,R,ugm-3
11-01-2017,10:00,47.71671,R,ugm-3,47.99897,R,ugm-3,121.16357,R,ugm-3
11-01-2017,11:00,42.74903,R,ugm-3,50.92701,R,ugm-3,116.47460,R,ugm-3
11-01-2017,12:00,38.92979,R,ugm-3,40.13525,R,ugm-3,99.82676,R,ugm-3
11-01-2017,13:00,,,,,,,,,
11-01-2017,14:00,34.77784,R,ugm-3,47.08766,R,ugm-3,100.41294,R,ugm-3
11-01-2017,15:00,37.00178,R,ugm-3,47.66333,R,ugm-3,104.39859,R,ugm-3
11-01-2017,16:00,26.54660,R,ugm-3,38.95810,R,ugm-3,79.66232,R,ugm-3
11-01-2017,17:00,25.13777,R,ugm-3,39.47639,R,ugm-3,78.02044,R,ugm-3
11-01-2017,18:00,16.68389,R,ugm-3,36.72908,R,ugm-3,62.31068,R,ugm-3
11-01-2017,19:00,60.32255,R,ugm-3,56.74818,R,ugm-3,149.24146,R,ugm-3
11-01-2017,20:00,23.61731,R,ugm-3,40.81179,R,ugm-3,77.02450,R,ugm-3
11-01-2017,21:00,12.53162,R,ugm-3,32.36858,R,ugm-3,51.58347,R,ugm-3
11-01-2017,22:00,9.15799,R,ugm-3,26.22803,R,ugm-3,40.27008,R,ugm-3
11-01-2017,23:00,10.90047,R,ugm-3,27.19145,R,ugm-3,43.90526,R,ugm-3
11-01-2017,24:00,4.78246,R,ugm-3,18.69325,R,ugm-3,26.02626,R,ugm-3
12-01-2017,01:00,3.71072,R,ugm-3,14.72561,R,ugm-3,20.41530,R,ugm-3
12-01-2017,02:00,1.63272,R,ugm-3,11.49795,R,ugm-3,14.00141,R,ugm-3
12-01-2017,03:00,2.11511,R,ugm-3,9.83933,R,ugm-3,13.08246,R,ugm-3
12-01-2017,04:00,2.67172,R,ugm-3,11.21490,R,ugm-3,15.31148,R,ugm-3
12-01-2017,05:00,3.67361,R,ugm-3,11.61461,R,ugm-3,17.24740,R,ugm-3
12-01-2017,06:00,6.19690,R,ugm-3,16.66313,R,ugm-3,26.16491,R,ugm-3
12-01-2017,07:00,21.33663,R,ugm-3,30.87779,R,ugm-3,63.59349,R,ugm-3
12-01-2017,08:00,39.96443,R,ugm-3,42.09126,R,ugm-3,103.36919,R,ugm-3
12-01-2017,09:00,59.51991,R,ugm-3,49.88756,R,ugm-3,141.15015,R,ugm-3
12-01-2017,10:00,66.57027,R,ugm-3,52.21842,R,ugm-3,154.29142,R,ugm-3
12-01-2017,11:00,76.32946,R,ugm-3,52.39007,R,ugm-3,169.42694,R,ugm-3
12-01-2017,12:00,67.64638,R,ugm-3,51.56530,R,ugm-3,155.28831,R,ugm-3
12-01-2017,13:00,88.42640,R,ugm-3,55.13785,R,ugm-3,190.72311,R,ugm-3
12-01-2017,14:00,101.00573,R,ugm-3,60.31356,R,ugm-3,215.18685,R,ugm-3
12-01-2017,15:00,103.56613,R,ugm-3,64.24853,R,ugm-3,223.04770,R,ugm-3
12-01-2017,16:00,75.99549,R,ugm-3,59.53134,R,ugm-3,176.05614,R,ugm-3
12-01-2017,17:00,52.61797,R,ugm-3,48.73719,R,ugm-3,129.41696,R,ugm-3
12-01-2017,18:00,28.42410,R,ugm-3,27.40278,R,ugm-3,70.98578,R,ugm-3
12-01-2017,19:00,31.28135,R,ugm-3,29.70973,R,ugm-3,77.67380,R,ugm-3
12-01-2017,20:00,38.22039,R,ugm-3,41.06998,R,ugm-3,99.67376,R,ugm-3
12-01-2017,21:00,21.29952,R,ugm-3,34.16155,R,ugm-3,66.82036,R,ugm-3
12-01-2017,22:00,16.36426,R,ugm-3,32.69467,R,ugm-3,57.78619,R,ugm-3
12-01-2017,23:00,20.66870,R,ugm-3,30.43553,R,ugm-3,62.12708,R,ugm-3
12-01-2017,24:00,8.90572,R,ugm-3,23.65667,R,ugm-3,37.31192,R,ugm-3
13-01-2017,01:00,7.32248,R,ugm-3,18.20764,R,ugm-3,29.43529,R,ugm-3
13-01-2017,02:00,4.30443,R,ugm-3,15.55436,R,ugm-3,22.15440,R,ugm-3
13-01-2017,03:00,3.93336,R,ugm-3,13.69685,R,ugm-3,19.72792,R,ugm-3
13-01-2017,04:00,5.52897,R,ugm-3,16.29928,R,ugm-3,24.77692,R,ugm-3
13-01-2017,05:00,4.30443,R,ugm-3,12.59955,R,ugm-3,19.19959,R,ugm-3
13-01-2017,06:00,7.68119,R,ugm-3,21.39562,R,ugm-3,33.17327,R,ugm-3
13-01-2017,07:00,19.36995,R,ugm-3,30.71571,R,ugm-3,60.41588,R,ugm-3
13-01-2017,08:00,28.86938,R,ugm-3,33.99947,R,ugm-3,78.26524,R,ugm-3
13-01-2017,09:00,28.27567,R,ugm-3,39.31383,R,ugm-3,82.66925,R,ugm-3
13-01-2017,10:00,31.61531,R,ugm-3,39.41854,R,ugm-3,87.89468,R,ugm-3
13-01-2017,11:00,32.61721,R,ugm-3,35.76853,R,ugm-3,85.78088,R,ugm-3
13-01-2017,12:00,35.51157,R,ugm-3,36.14482,R,ugm-3,90.59513,R,ugm-3
13-01-2017,13:00,49.61229,R,ugm-3,39.88853,R,ugm-3,115.95966,R,ugm-3
13-01-2017,14:00,36.58768,R,ugm-3,37.19526,R,ugm-3,93.29558,R,ugm-3
13-01-2017,15:00,35.84553,R,ugm-3,37.51130,R,ugm-3,92.47368,R,ugm-3
13-01-2017,16:00,63.86145,R,ugm-3,49.04128,R,ugm-3,146.96080,R,ugm-3
13-01-2017,17:00,54.80730,R,ugm-3,47.95211,R,ugm-3,131.98880,R,ugm-3
13-01-2017,18:00,59.74255,R,ugm-3,51.48115,R,ugm-3,143.08512,R,ugm-3
13-01-2017,19:00,59.00041,R,ugm-3,53.67670,R,ugm-3,144.14273,R,ugm-3
13-01-2017,20:00,48.46197,R,ugm-3,51.57487,R,ugm-3,125.88218,R,ugm-3
13-01-2017,21:00,34.39835,R,ugm-3,45.89570,R,ugm-3,98.63910,R,ugm-3
13-01-2017,22:00,22.96934,R,ugm-3,39.69968,R,ugm-3,74.91884,R,ugm-3
13-01-2017,23:00,26.23477,R,ugm-3,37.15844,R,ugm-3,77.38453,R,ugm-3
13-01-2017,24:00,22.59827,R,ugm-3,33.69251,R,ugm-3,68.34271,R,ugm-3
14-01-2017,01:00,15.05325,R,ugm-3,30.35201,R,ugm-3,53.43334,R,ugm-3
14-01-2017,02:00,20.79790,R,ugm-3,40.11278,R,ugm-3,72.00244,R,ugm-3
14-01-2017,03:00,15.67201,R,ugm-3,28.38485,R,ugm-3,52.41493,R,ugm-3
14-01-2017,04:00,12.03302,R,ugm-3,27.85365,R,ugm-3,46.30402,R,ugm-3
14-01-2017,05:00,10.76981,R,ugm-3,30.08458,R,ugm-3,46.59806,R,ugm-3
14-01-2017,06:00,6.35063,R,ugm-3,24.52064,R,ugm-3,34.25813,R,ugm-3
14-01-2017,07:00,36.43270,R,ugm-3,37.74414,R,ugm-3,93.60683,R,ugm-3
14-01-2017,08:00,23.88018,R,ugm-3,30.72527,R,ugm-3,67.34104,R,ugm-3
14-01-2017,09:00,55.03898,R,ugm-3,44.64827,R,ugm-3,129.04020,R,ugm-3
14-01-2017,10:00,57.60187,R,ugm-3,45.77186,R,ugm-3,134.09350,R,ugm-3
14-01-2017,11:00,56.56163,R,ugm-3,47.48451,R,ugm-3,134.21112,R,ugm-3
14-01-2017,12:00,80.62734,R,ugm-3,53.77424,R,ugm-3,177.40111,R,ugm-3
14-01-2017,13:00,104.47011,R,ugm-3,59.05370,R,ugm-3,219.23896,R,ugm-3
14-01-2017,14:00,99.75344,R,ugm-3,57.06039,R,ugm-3,210.01354,R,ugm-3
14-01-2017,15:00,146.77073,R,ugm-3,70.76059,R,ugm-3,295.80590,R,ugm-3
14-01-2017,16:00,145.32230,R,ugm-3,63.99082,R,ugm-3,286.81523,R,ugm-3
14-01-2017,17:00,106.40124,R,ugm-3,65.14262,R,ugm-3,228.28891,R,ugm-3
14-01-2017,18:00,118.43425,R,ugm-3,64.43786,R,ugm-3,246.03452,R,ugm-3
14-01-2017,19:00,95.74275,R,ugm-3,57.27555,R,ugm-3,204.07905,R,ugm-3
14-01-2017,20:00,94.51728,R,ugm-3,57.97935,R,ugm-3,202.90382,R,ugm-3
14-01-2017,21:00,61.87232,R,ugm-3,53.91433,R,ugm-3,148.78389,R,ugm-3
14-01-2017,22:00,45.23458,R,ugm-3,47.75321,R,ugm-3,117.11194,R,ugm-3
14-01-2017,23:00,67.59212,R,ugm-3,53.95880,R,ugm-3,157.59861,R,ugm-3
14-01-2017,24:00,65.25188,R,ugm-3,51.25930,R,ugm-3,151.31078,R,ugm-3
15-01-2017,01:00,43.95901,R,ugm-3,47.40769,R,ugm-3,114.81056,R,ugm-3
15-01-2017,02:00,34.69199,R,ugm-3,44.03850,R,ugm-3,97.23214,R,ugm-3
15-01-2017,03:00,44.60314,R,ugm-3,46.02814,R,ugm-3,114.41866,R,ugm-3
15-01-2017,04:00,29.36394,R,ugm-3,37.72884,R,ugm-3,82.75292,R,ugm-3
15-01-2017,05:00,17.73006,R,ugm-3,30.31743,R,ugm-3,57.50314,R,ugm-3
15-01-2017,06:00,7.02479,R,ugm-3,23.36597,R,ugm-3,34.13717,R,ugm-3
15-01-2017,07:00,11.18828,R,ugm-3,20.86633,R,ugm-3,38.02146,R,ugm-3
15-01-2017,08:00,13.64110,R,ugm-3,21.99088,R,ugm-3,42.90694,R,ugm-3
15-01-2017,09:00,4.08865,R,ugm-3,17.09679,R,ugm-3,23.36597,R,ugm-3
15-01-2017,10:00,22.07877,R,ugm-3,27.18141,R,ugm-3,61.03505,R,ugm-3
15-01-2017,11:00,34.04724,R,ugm-3,33.07908,R,ugm-3,85.28411,R,ugm-3
15-01-2017,12:00,49.73297,R,ugm-3,39.51608,R,ugm-3,115.77223,R,ugm-3